Temperature
19 19 19 19 19 19 19 18 18 18 18 18 18 18 18 18 18 17 17 17 17 17 17 17 17 17 17 17 17 17 17 17 17 17 17 17 17 17 17 17 17 17 17
19 19 19 19 19 19 19 19 18 18 18 18 18 18 18 17 17 17 17 17 17 17 17 17 17 17 17 17 17 17 17 17 17 17 17 17 17 17 17 17 17 17 17
19 19 19 19 19 19 19 18 18 18 18 18 18 17 17 17 17 17 17 17 17 17 17 17 17 17 17 17 17 17 17 17 17 17 17 16 16 16 17 17 17 17 17
20 20 19 19 19 19 19 18 18 18 18 18 18 17 17 17 17 17 17 17 17 17 17 17 17 17 17 17 17 17 17 17 17 17 16 16 16 16 16 16 17 17 17
20 20 20 19 19 19 18 18 18 18 18 18 18 17 17 17 17 17 17 17 17 17 17 17 17 17 17 17 17 17 16 16 16 16 16 16 16 16 16 16 16 16 16
20 20 20 19 19 19 18 18 18 18 18 18 18 17 17 17 17 17 17 17 17 17 17 17 17 17 17 16 16 16 16 16 16 16 16 16 16 16 16 16 16 16 16
20 20 20 19 19 19 19 18 18 18 18 18 18 17 17 17 17 17 17 17 17 17 17 17 17 17 16 16 16 16 16 16 16 16 16 16 16 15 15 15 15 15 16
20 20 20 19 19 19 18 18 18 18 18 18 18 17 17 17 17 17 17 17 16 16 16 16 16 16 16 16 16 16 16 16 16 16 16 15 15 15 15 15 15 15 15
20 20 20 19 19 19 18 18 18 18 18 18 17 17 17 17 16 16 16 16 16 16 16 16 16 16 16 16 16 16 16 16 16 16 15 15 15 15 15 15 15 15 15
20 20 20 19 19 19 18 18 18 18 17 17 17 17 17 16 16 16 16 16 16 16 16 16 16 16 16 16 15 15 15 15 15 15 15 15 15 15 15 15 15 15 15
20 20 20 19 19 19 18 18 18 18 17 17 17 17 16 16 16 16 16 16 16 16 16 16 16 16 16 15 15 15 15 15 15 15 15 15 15 15 15 15 15 15 15
20 20 20 19 19 19 18 18 18 18 17 17 17 16 16 16 16 16 15 15 15 15 15 15 15 15 15 15 15 15 15 15 15 15 15 15 15 15 14 14 14 14 14
20 20 20 19 19 19 18 18 18 18 17 17 17 16 16 16 16 15 15 15 15 15 15 15 15 15 15 15 15 15 15 14 14 14 14 14 14 14 14 14 14 14 14
20 20 20 19 19 19 18 18 18 17 17 17 16 16 16 16 16 15 15 15 15 15 15 14 14 15 15 15 15 15 14 14 14 14 14 14 14 14 14 14 14 13 13
20 20 20 19 19 19 18 18 17 17 17 16 16 16 16 16 15 15 15 15 15 14 14 14 14 14 14 14 14 14 14 14 14 14 14 14 13 13 13 13 13 13 13
19 19 19 19 19 19 18 18 17 17 17 16 16 16 16 15 15 15 15 15 14 14 14 14 14 14 14 14 14 14 14 14 14 14 14 13 13 13 13 13 13 13 13
19 19 19 19 19 18 18 18 17 17 16 16 16 16 15 15 15 15 15 15 14 14 14 14 14 13 13 14 14 13 13 13 13 13 13 13 13 13 13 13 13 13 13
19 19 19 19 18 18 17 17 17 17 16 16 16 15 15 15 15 15 14 14 14 14 14 13 13 13 13 13 13 13 13 13 13 13 13 13 13 12 12 12 12 12 12
19 19 19 19 18 18 17 17 17 16 16 16 15 15 15 15 15 14 14 14 14 13 13 13 13 13 13 13 13 13 13 13 13 12 12 12 12 12 12 12 12 12 12
19 19 18 18 17 17 17 17 16 16 16 15 15 15 15 14 14 14 14 13 13 13 13 13 13 13 13 13 12 12 12 12 12 12 12 12 12 12 12 12 12 12 12
19 18 18 17 17 17 16 16 16 15 15 15 15 14 14 14 14 14 13 13 13 13 13 13 13 13 12 12 12 12 12 12 12 12 12 12 11 11 11 11 11 11 11
18 18 17 17 17 16 16 16 15 15 15 14 14 14 14 14 14 13 13 13 13 13 13 12 12 12 12 12 12 12 12 12 11 11 11 11 11 11 11 11 11 11 11
18 17 17 17 16 16 16 15 15 15 14 14 14 14 14 13 13 13 13 12 12 12 12 12 12 12 12 12 12 12 11 11 11 11 11 11 11 11 11 11 11 11 10
17 17 17 16 16 16 15 15 15 14 14 14 14 13 13 13 13 13 12 12 12 12 12 12 12 11 11 11 11 11 11 11 11 11 11 11 11 10 10 10 10 10 10
17 16 16 16 16 15 15 15 14 14 14 13 13 13 13 13 12 12 12 12 12 12 12 12 11 11 11 11 10 10 10 10 10 10 10 10 10 10 10 10 10 10 10
17 16 16 16 15 15 15 15 14 14 14 13 13 13 13 12 12 12 12 12 12 11 11 11 11 11 11 11 10 10 10 10 10 10 10 10 10 9 9 9 9 9 9
Wind_Speed
3 1 1 1 1 0 1 1 1 1 1 1 1 1 1 1 1 1 1 1 1 0 1 0 0 1 0 0 1 1 0 1 1 1 1 1 0 1 1 1 1 2 2
2 2 1 1 1 1 1 1 0 1 1 0 1 1 1 1 0 1 1 1 1 1 1 0 0 0 1 1 1 1 1 0 1 1 1 1 1 1 1 1 1 1 1
6 4 3 2 2 2 2 1 0 0 1 1 1 1 2 2 2 2 2 1 1 1 1 1 1 1 1 0 0 0 1 0 0 1 1 1 1 1 1 1 1 1 1
6 5 4 3 3 3 2 1 0 0 1 1 1 1 1 0 1 1 1 2 2 2 1 1 1 1 1 0 0 0 0 1 0 0 0 1 1 1 1 1 1 1 1
6 6 6 5 4 2 2 1 1 1 1 2 1 1 0 0 0 1 2 2 2 2 2 1 1 1 1 1 0 0 1 1 1 1 0 1 1 1 1 1 2 1 1
5 5 4 3 2 1 1 1 1 0 1 1 2 1 1 1 1 1 1 1 2 2 3 2 1 1 1 0 0 0 1 1 1 1 1 1 1 1 1 1 1 2 2
5 5 4 3 2 1 1 1 1 0 0 1 1 0 1 2 1 1 0 0 1 1 2 2 1 1 1 1 0 1 0 1 1 1 1 1 1 1 1 1 1 1 2
5 5 5 4 3 2 1 1 1 1 0 1 1 0 1 1 1 0 0 0 1 1 1 2 2 2 2 1 1 1 0 0 0 1 1 1 1 1 1 2 2 1 1
5 5 4 4 3 3 2 2 2 1 0 1 1 1 1 1 1 1 1 1 1 1 2 2 2 2 2 2 1 2 1 0 0 1 1 1 1 1 1 2 2 2 2
4 4 4 4 4 3 2 2 2 1 1 1 1 1 1 1 1 2 2 2 2 2 3 3 3 3 2 2 2 2 1 1 1 1 1 1 2 1 1 2 2 2 3
5 4 3 3 3 3 2 2 1 1 2 1 1 2 1 1 2 2 1 2 2 2 2 2 3 3 3 3 2 2 2 2 1 1 1 2 1 1 1 1 1 2 2
3 3 3 3 3 3 2 2 2 1 1 2 2 1 1 2 2 2 2 2 2 2 2 2 2 2 3 3 3 3 3 2 2 2 1 2 2 2 2 1 1 1 2
4 3 3 3 3 3 3 2 2 2 1 2 2 2 1 1 1 1 2 2 2 2 2 2 2 2 2 2 2 2 2 2 2 2 2 2 1 2 2 1 1 1 1
5 4 3 2 3 3 3 3 2 1 2 2 2 1 0 1 1 1 1 1 1 2 2 2 2 2 2 2 2 2 2 2 2 2 2 2 2 2 2 2 2 1 1
4 5 4 3 3 3 2 2 2 1 2 2 1 1 1 0 1 1 1 1 1 1 1 2 2 2 1 2 2 1 2 2 2 3 2 2 2 2 2 2 2 2 1
5 4 4 3 3 3 3 3 2 2 2 2 1 1 0 1 1 1 1 1 2 2 2 1 2 2 2 2 2 1 2 2 2 3 3 3 3 3 3 2 2 3 3
4 4 4 4 3 3 3 3 3 2 2 2 1 0 0 0 1 1 1 1 1 1 1 2 2 2 3 3 2 2 2 2 2 3 3 3 3 3 3 3 3 2 1
4 3 3 3 2 2 3 3 2 2 2 1 1 1 1 1 1 1 1 1 1 0 1 2 2 3 4 4 3 3 2 2 3 3 3 2 3 3 2 2 2 2 2
4 4 3 3 3 3 3 4 2 2 1 1 1 1 1 1 1 1 2 2 1 1 1 1 2 3 4 5 4 2 1 2 3 3 3 2 3 4 3 2 2 2 3
3 4 4 4 3 2 3 4 2 1 1 1 1 1 1 2 2 2 2 1 1 1 2 2 2 3 3 5 4 2 1 2 3 3 3 4 4 4 3 2 2 2 3
4 5 5 4 2 2 4 3 2 2 2 1 1 1 1 2 3 2 1 1 1 1 1 2 3 3 3 4 4 2 1 1 2 3 4 4 5 5 5 3 2 3 2
4 5 4 2 1 2 3 2 2 2 1 1 0 1 1 2 1 1 1 1 1 1 2 2 3 3 3 3 4 3 2 2 2 3 3 4 6 6 6 3 3 3 1
4 4 4 2 1 1 3 2 2 1 1 1 0 1 2 2 1 1 1 1 1 1 2 2 3 4 3 3 4 4 4 4 2 3 4 5 6 5 4 4 3 1 1
4 3 4 3 2 2 2 3 2 1 2 1 1 1 1 2 2 1 1 1 1 2 2 2 3 3 4 3 3 3 3 3 3 3 4 5 5 3 3 3 2 1 0
3 4 4 3 2 2 1 1 1 2 2 1 0 1 1 1 2 2 1 2 3 3 3 3 3 3 4 5 4 2 3 3 3 3 2 3 3 4 3 3 3 2 1
3 3 3 3 2 1 1 1 1 2 2 1 1 1 1 1 1 2 3 3 3 4 4 4 3 3 5 6 5 4 4 4 3 1 2 3 3 3 3 3 3 2 2
Wind_Direction
224 207 197 160 93 92 135 131 83 12 39 32 355 341 318 327 354 332 328 325 330 133 147 230 20 57 80 115 67 66 40 54 94 98 36 8 160 172 184 187 195 211 216
211 204 186 146 139 153 137 101 59 19 25 336 283 246 244 286 329 353 5 6 24 53 158 127 108 98 76 50 58 78 80 81 94 110 104 23 353 341 248 196 201 219 211
209 208 200 196 179 187 198 207 218 47 12 16 35 29 36 27 24 14 7 2 47 60 59 46 66 74 107 202 201 107 136 141 46 77 136 148 231 316 331 275 246 230 219
205 198 200 201 199 207 195 188 290 40 43 73 75 95 106 352 318 350 359 2 30 46 49 43 49 63 71 130 248 124 124 132 175 287 81 153 161 169 302 312 296 248 222
200 198 200 200 203 195 168 145 57 2 22 71 99 105 134 212 0 33 24 17 10 16 25 37 47 45 31 358 355 87 134 149 167 175 168 98 74 111 181 273 314 327 280
196 198 195 178 187 173 150 131 126 50 27 65 75 90 128 128 90 37 8 4 0 6 14 18 13 3 12 318 284 186 173 172 170 166 141 144 151 187 181 218 282 301 300
182 181 170 166 173 172 170 148 151 242 344 79 94 131 161 146 148 207 269 346 1 352 354 17 10 5 354 337 79 122 179 184 177 178 194 193 206 166 174 191 247 285 313
176 179 177 169 170 171 170 156 179 227 226 176 197 169 142 138 144 174 46 333 306 303 339 15 15 13 22 25 50 65 20 51 203 222 217 223 249 194 188 193 201 253 298
173 176 172 168 173 171 175 163 146 116 149 181 158 111 97 102 93 54 48 8 330 335 18 26 20 18 28 32 52 51 7 11 262 257 244 242 261 230 223 209 202 198 235
169 169 170 174 177 175 173 135 136 142 100 86 113 99 80 78 77 73 44 26 13 19 24 24 21 19 26 32 44 31 1 9 322 285 272 272 263 262 245 223 220 213 213
178 173 170 168 165 154 148 144 136 118 91 79 82 73 62 64 62 54 30 26 27 37 37 33 35 26 20 21 33 22 20 14 345 329 304 288 275 274 272 250 225 222 213
173 164 160 148 144 149 155 158 157 150 151 131 112 93 59 58 53 29 15 25 23 20 25 38 36 15 11 16 23 12 9 4 339 320 313 304 307 304 292 270 248 237 227
162 155 151 155 163 165 167 172 177 182 152 122 110 81 45 31 18 0 1 23 28 26 32 36 19 0 359 2 354 348 345 350 334 325 305 299 302 297 301 279 258 255 246
165 167 173 182 179 173 173 177 184 171 135 119 110 92 348 334 333 344 9 23 44 41 29 17 0 349 351 349 337 343 345 339 330 324 314 306 281 263 263 265 256 238 219
178 184 188 188 180 171 169 165 163 148 138 131 133 222 271 350 12 17 23 36 41 33 29 18 7 357 353 343 340 330 333 325 328 329 325 318 304 285 273 265 249 218 208
191 191 184 172 172 175 174 165 162 158 139 140 186 236 43 38 3 341 18 31 27 25 32 8 359 351 340 340 334 319 304 306 300 311 322 327 335 330 314 295 263 229 216
183 179 178 175 176 177 170 170 179 155 137 152 184 27 65 360 312 316 16 360 7 32 10 345 341 321 318 329 313 307 291 294 292 297 310 326 340 348 342 352 349 321 268
169 165 158 156 155 155 158 154 144 143 150 159 202 229 206 252 282 341 324 311 307 323 318 328 325 316 324 337 325 314 306 310 307 304 299 307 322 337 349 6 3 339 310
166 160 150 143 137 144 150 137 132 140 148 196 234 237 219 232 264 284 279 279 299 313 320 326 318 311 318 333 334 348 328 325 321 322 326 326 323 333 352 4 341 329 318
131 130 120 112 119 134 134 134 148 153 202 237 246 242 211 219 240 254 261 273 279 283 307 328 327 323 325 338 341 355 351 336 328 330 332 339 332 326 321 312 308 301 297
132 128 124 129 144 141 135 146 167 213 230 228 227 254 240 230 234 248 258 289 301 322 328 332 334 336 330 333 341 337 336 301 312 322 325 324 328 321 310 295 271 266 286
132 132 132 138 141 134 135 157 221 236 214 166 208 274 285 271 258 249 280 287 282 328 326 332 332 331 328 332 337 339 322 315 302 305 314 318 327 325 316 302 285 290 307
148 143 141 143 139 149 156 192 244 238 115 111 264 298 318 323 312 252 261 285 279 285 302 309 313 317 323 324 330 333 326 320 308 301 310 318 322 324 324 321 319 355 45
150 140 135 153 201 223 204 212 232 185 146 162 279 314 337 339 339 315 264 247 264 270 278 284 290 301 313 316 325 332 330 330 319 312 321 324 329 336 337 345 350 4 12
151 147 159 180 213 214 233 245 208 155 153 173 255 331 336 328 326 316 291 264 257 245 245 255 258 274 294 293 291 302 310 316 316 327 338 353 354 355 348 343 343 343 344
162 160 166 183 212 211 239 256 220 167 166 198 238 242 258 291 303 319 328 325 281 283 253 236 238 257 262 290 300 298 295 298 317 356 334 327 325 322 317 316 321 321 312
Height
1526 1527 1527 1526 1526 1525 1525 1526 1526 1526 1526 1526 1526 1525 1525 1525 1525 1526 1526 1526 1526 1526 1525 1525 1524 1524 1523 1523 1522 1522 1521 1520 1520 1521 1521 1521 1522 1522 1524 1524 1526 1527 1528
1524 1525 1525 1525 1525 1525 1525 1526 1526 1526 1526 1526 1525 1525 1525 1525 1525 1525 1525 1525 1525 1525 1525 1524 1523 1523 1523 1522 1522 1521 1520 1520 1520 1520 1520 1520 1522 1521 1522 1523 1524 1525 1526
1522 1523 1524 1524 1525 1525 1525 1526 1526 1526 1526 1525 1525 1525 1524 1524 1524 1524 1524 1524 1524 1524 1524 1523 1523 1523 1522 1522 1521 1521 1520 1520 1520 1520 1521 1521 1520 1520 1521 1521 1522 1523 1524
1521 1521 1522 1523 1524 1525 1525 1526 1526 1526 1525 1525 1524 1523 1523 1523 1523 1523 1523 1524 1524 1523 1523 1523 1522 1522 1522 1521 1521 1520 1520 1520 1519 1520 1520 1520 1520 1520 1520 1520 1520 1521 1521
1519 1520 1521 1522 1523 1524 1525 1525 1526 1526 1525 1524 1523 1522 1522 1522 1522 1522 1522 1523 1523 1522 1522 1522 1522 1521 1521 1521 1520 1519 1519 1519 1519 1518 1518 1518 1519 1519 1519 1518 1519 1519 1519
1517 1518 1520 1521 1522 1523 1524 1524 1524 1524 1524 1523 1522 1522 1521 1521 1521 1521 1521 1521 1521 1521 1521 1521 1520 1520 1520 1520 1519 1519 1518 1518 1518 1518 1517 1517 1517 1517 1517 1517 1516 1517 1517
1515 1516 1518 1519 1521 1522 1523 1523 1524 1523 1523 1522 1521 1520 1520 1520 1520 1520 1520 1520 1520 1520 1520 1519 1519 1519 1519 1519 1518 1518 1518 1517 1517 1516 1516 1516 1516 1516 1516 1516 1515 1515 1515
1513 1514 1516 1518 1520 1521 1522 1522 1522 1522 1522 1521 1520 1520 1519 1519 1519 1519 1519 1519 1519 1519 1519 1519 1519 1518 1518 1517 1517 1517 1516 1516 1516 1515 1515 1515 1514 1514 1514 1514 1514 1513 1513
1512 1514 1516 1517 1519 1520 1521 1521 1521 1521 1520 1520 1519 1519 1518 1518 1518 1518 1518 1519 1518 1519 1518 1518 1518 1518 1517 1517 1516 1515 1515 1515 1514 1513 1513 1513 1512 1513 1513 1513 1513 1513 1511
1512 1513 1515 1517 1518 1519 1520 1521 1520 1520 1520 1519 1519 1518 1518 1517 1517 1517 1517 1518 1518 1517 1517 1517 1517 1517 1517 1516 1515 1514 1513 1513 1512 1512 1511 1511 1510 1510 1510 1510 1510 1510 1510
1511 1513 1515 1516 1518 1519 1519 1520 1520 1519 1519 1519 1518 1517 1517 1517 1517 1517 1516 1517 1517 1516 1516 1516 1516 1516 1515 1515 1514 1513 1512 1511 1511 1510 1510 1509 1509 1508 1508 1508 1507 1507 1507
1512 1513 1515 1516 1517 1518 1518 1519 1519 1519 1519 1518 1518 1517 1517 1516 1516 1516 1516 1516 1516 1515 1515 1515 1515 1514 1514 1513 1512 1511 1511 1510 1509 1509 1508 1507 1506 1506 1505 1505 1505 1505 1505
1511 1513 1514 1515 1516 1517 1517 1518 1518 1518 1518 1518 1517 1517 1517 1516 1516 1515 1516 1515 1515 1514 1514 1514 1513 1513 1512 1512 1511 1510 1509 1509 1508 1507 1506 1505 1504 1504 1503 1503 1502 1502 1502
1510 1512 1513 1515 1515 1516 1517 1517 1517 1518 1517 1517 1517 1516 1516 1516 1515 1515 1515 1514 1514 1513 1513 1512 1512 1511 1511 1510 1510 1509 1508 1507 1506 1505 1504 1503 1502 1501 1501 1500 1500 1499 1499
1509 1511 1512 1513 1515 1515 1516 1516 1517 1517 1517 1517 1516 1516 1516 1515 1515 1514 1514 1513 1513 1512 1512 1511 1511 1510 1509 1509 1508 1507 1506 1505 1504 1503 1502 1501 1500 1499 1498 1498 1497 1497 1496
1508 1510 1511 1512 1514 1515 1515 1516 1516 1516 1516 1516 1516 1515 1515 1514 1514 1513 1513 1512 1511 1511 1510 1509 1509 1508 1508 1507 1506 1505 1504 1503 1502 1501 1500 1499 1498 1496 1495 1495 1494 1494 1493
1508 1509 1510 1512 1513 1514 1515 1515 1515 1516 1516 1515 1515 1515 1514 1513 1512 1512 1512 1511 1510 1510 1509 1508 1507 1506 1506 1505 1504 1503 1502 1501 1500 1499 1498 1497 1496 1494 1493 1491 1491 1490 1490
1507 1508 1510 1511 1513 1514 1515 1515 1515 1515 1515 1514 1514 1514 1513 1512 1512 1511 1511 1510 1509 1508 1508 1507 1506 1505 1504 1503 1502 1501 1500 1499 1498 1497 1495 1494 1493 1492 1490 1489 1488 1487 1486
1507 1508 1509 1511 1512 1513 1514 1514 1514 1514 1514 1514 1513 1513 1512 1512 1511 1510 1509 1509 1508 1507 1507 1506 1505 1504 1503 1502 1500 1500 1498 1497 1495 1494 1493 1491 1490 1489 1488 1486 1485 1484 1483
1507 1508 1509 1510 1511 1512 1513 1513 1513 1513 1513 1512 1512 1512 1511 1511 1510 1509 1509 1508 1507 1507 1506 1505 1504 1503 1501 1500 1499 1497 1496 1495 1493 1492 1490 1489 1487 1486 1485 1483 1482 1481 1480
1506 1507 1508 1509 1510 1511 1511 1512 1512 1512 1512 1511 1511 1511 1510 1510 1509 1508 1508 1507 1506 1505 1504 1503 1502 1501 1500 1498 1497 1495 1494 1492 1490 1489 1487 1486 1485 1483 1482 1480 1479 1478 1478
1505 1507 1508 1509 1510 1510 1510 1510 1510 1510 1510 1510 1510 1509 1509 1508 1507 1506 1506 1505 1504 1503 1503 1501 1500 1499 1498 1496 1495 1493 1492 1490 1488 1486 1485 1483 1482 1481 1479 1477 1476 1476 1475
1504 1506 1507 1508 1508 1509 1509 1509 1509 1508 1508 1508 1508 1507 1507 1506 1505 1504 1504 1503 1503 1502 1500 1499 1498 1496 1495 1494 1493 1491 1490 1488 1486 1485 1483 1481 1480 1478 1476 1475 1474 1472 1471
1503 1505 1506 1507 1507 1508 1508 1508 1508 1507 1507 1506 1506 1505 1504 1504 1503 1502 1502 1501 1500 1499 1498 1497 1496 1494 1493 1492 1490 1489 1488 1486 1485 1483 1481 1479 1477 1475 1474 1473 1471 1470 1469
1502 1504 1505 1506 1506 1506 1506 1506 1506 1505 1504 1504 1504 1503 1502 1502 1501 1501 1500 1499 1498 1498 1496 1495 1494 1492 1491 1490 1489 1487 1485 1484 1482 1481 1479 1477 1475 1473 1471 1471 1469 1468 1467
1501 1502 1503 1504 1504 1504 1504 1504 1503 1503 1502 1502 1501 1501 1500 1500 1499 1498 1498 1497 1497 1496 1494 1493 1492 1490 1490 1488 1487 1485 1484 1482 1480 1479 1476 1475 1473 1471 1470 1468 1467 1466 1465